QPF
0.02 0.03 0.03 0.03 0.03 0.02 0.02 0.03 0.03 0.03 0.02 0.01 0.01 0.01 0.01 0.01 0.01 0.01 0.01 0.02 0.02 0.03 0.01 0.02 0.03 0.03 0.03 0.02 0.01 0.01 0.02 0.03 0.03 0.02 0.02 0.03 0.03 0.02 0.02 0.01 0.01 0.01 0.01
0.04 0.04 0.03 0.04 0.03 0.03 0.03 0.03 0.02 0.03 0.03 0.02 0.01 0.01 0.02 0.01 0.01 0.01 0.02 0.03 0.03 0.03 0.03 0.03 0.04 0.04 0.04 0.03 0.03 0.02 0.03 0.04 0.03 0.02 0.02 0.03 0.03 0.03 0.03 0.03 0.01 0.02 0.01
0.05 0.04 0.04 0.04 0.04 0.03 0.05 0.05 0.04 0.04 0.03 0.03 0.03 0.03 0.04 0.02 0.01 0.02 0.03 0.05 0.04 0.04 0.04 0.04 0.05 0.06 0.06 0.06 0.06 0.07 0.07 0.06 0.04 0.03 0.03 0.03 0.03 0.03 0.03 0.03 0.02 0.02 0.02
0.03 0.05 0.04 0.04 0.04 0.04 0.05 0.07 0.07 0.06 0.06 0.05 0.05 0.05 0.04 0.03 0.02 0.03 0.04 0.06 0.06 0.06 0.05 0.05 0.05 0.07 0.08 0.09 0.11 0.11 0.11 0.09 0.08 0.07 0.05 0.04 0.04 0.04 0.04 0.04 0.04 0.04 0.03
0.03 0.04 0.05 0.06 0.05 0.05 0.05 0.05 0.06 0.08 0.07 0.08 0.05 0.07 0.06 0.05 0.05 0.04 0.05 0.04 0.05 0.05 0.06 0.05 0.06 0.06 0.08 0.12 0.17 0.17 0.17 0.14 0.11 0.10 0.10 0.08 0.07 0.05 0.04 0.04 0.04 0.03 0.03
0.03 0.04 0.06 0.06 0.06 0.07 0.07 0.06 0.08 0.10 0.09 0.11 0.06 0.04 0.04 0.04 0.04 0.03 0.04 0.03 0.03 0.03 0.03 0.05 0.07 0.08 0.09 0.11 0.14 0.16 0.16 0.16 0.14 0.13 0.12 0.11 0.10 0.08 0.06 0.06 0.06 0.06 0.06
0.05 0.05 0.04 0.07 0.05 0.05 0.06 0.06 0.08 0.09 0.08 0.09 0.09 0.06 0.04 0.03 0.04 0.05 0.05 0.04 0.04 0.03 0.04 0.04 0.05 0.06 0.08 0.08 0.09 0.11 0.13 0.15 0.16 0.14 0.14 0.12 0.11 0.10 0.09 0.09 0.09 0.08 0.07
0.04 0.05 0.05 0.05 0.06 0.07 0.07 0.08 0.10 0.09 0.07 0.07 0.09 0.09 0.08 0.06 0.05 0.04 0.04 0.06 0.05 0.05 0.06 0.06 0.07 0.07 0.08 0.10 0.08 0.07 0.08 0.10 0.12 0.13 0.13 0.12 0.11 0.10 0.08 0.09 0.07 0.06 0.06
0.06 0.07 0.05 0.06 0.07 0.06 0.08 0.10 0.09 0.08 0.08 0.08 0.09 0.11 0.12 0.11 0.09 0.07 0.06 0.06 0.07 0.08 0.08 0.08 0.07 0.07 0.08 0.11 0.09 0.08 0.07 0.09 0.11 0.12 0.10 0.09 0.08 0.07 0.07 0.07 0.07 0.07 0.07
0.04 0.06 0.05 0.06 0.07 0.06 0.07 0.06 0.06 0.07 0.09 0.09 0.08 0.09 0.09 0.12 0.13 0.10 0.10 0.10 0.10 0.10 0.10 0.07 0.08 0.08 0.08 0.08 0.07 0.07 0.08 0.07 0.09 0.10 0.08 0.07 0.08 0.07 0.07 0.07 0.08 0.09 0.08
0.04 0.03 0.04 0.05 0.06 0.06 0.05 0.05 0.08 0.08 0.08 0.08 0.08 0.08 0.09 0.10 0.10 0.09 0.11 0.13 0.13 0.11 0.08 0.06 0.07 0.06 0.05 0.06 0.06 0.05 0.05 0.06 0.07 0.08 0.07 0.07 0.07 0.07 0.07 0.07 0.08 0.08 0.09
0.05 0.03 0.04 0.06 0.07 0.06 0.05 0.06 0.07 0.07 0.07 0.08 0.07 0.07 0.09 0.10 0.10 0.09 0.08 0.10 0.12 0.12 0.08 0.07 0.08 0.07 0.07 0.06 0.06 0.04 0.03 0.05 0.05 0.05 0.06 0.07 0.07 0.06 0.05 0.05 0.06 0.07 0.08
0.06 0.05 0.04 0.06 0.06 0.05 0.04 0.04 0.05 0.06 0.07 0.07 0.07 0.07 0.08 0.08 0.09 0.09 0.09 0.11 0.13 0.12 0.08 0.06 0.06 0.06 0.06 0.05 0.04 0.02 0.03 0.04 0.04 0.03 0.03 0.03 0.05 0.06 0.06 0.07 0.07 0.07 0.08
0.05 0.04 0.04 0.04 0.04 0.04 0.04 0.04 0.04 0.06 0.06 0.06 0.06 0.07 0.07 0.07 0.09 0.10 0.11 0.14 0.14 0.11 0.07 0.06 0.05 0.05 0.05 0.04 0.04 0.03 0.03 0.03 0.03 0.02 0.02 0.03 0.05 0.07 0.08 0.09 0.09 0.08 0.08
0.02 0.02 0.03 0.02 0.02 0.03 0.04 0.04 0.04 0.05 0.07 0.07 0.07 0.09 0.09 0.09 0.11 0.12 0.10 0.10 0.10 0.10 0.09 0.09 0.08 0.08 0.07 0.07 0.06 0.04 0.03 0.03 0.03 0.03 0.06 0.06 0.04 0.05 0.06 0.07 0.07 0.07 0.06
0.02 0.03 0.03 0.03 0.03 0.03 0.03 0.05 0.05 0.05 0.06 0.06 0.06 0.06 0.06 0.06 0.06 0.06 0.06 0.08 0.12 0.15 0.14 0.11 0.09 0.09 0.09 0.08 0.07 0.03 0.02 0.02 0.03 0.03 0.03 0.04 0.06 0.06 0.06 0.06 0.06 0.05 0.05
0.03 0.02 0.02 0.02 0.03 0.03 0.04 0.04 0.04 0.05 0.05 0.04 0.04 0.04 0.05 0.06 0.07 0.07 0.08 0.10 0.11 0.10 0.09 0.08 0.09 0.08 0.07 0.05 0.03 0.01 0.01 0.01 0.02 0.02 0.02 0.03 0.06 0.06 0.06 0.06 0.07 0.06 0.05
0.02 0.02 0.01 0.01 0.02 0.03 0.04 0.04 0.04 0.05 0.06 0.05 0.06 0.07 0.06 0.05 0.06 0.06 0.06 0.06 0.05 0.06 0.06 0.06 0.06 0.07 0.06 0.04 0.03 0.02 0.02 0.02 0.02 0.03 0.02 0.02 0.02 0.03 0.04 0.05 0.05 0.05 0.04
0.02 0.01 0.01 0.01 0.01 0.01 0.01 0.02 0.04 0.04 0.04 0.04 0.04 0.05 0.05 0.05 0.05 0.05 0.05 0.05 0.04 0.05 0.05 0.05 0.05 0.05 0.03 0.02 0.02 0.03 0.03 0.03 0.02 0.01 0.01 0.01 0.01 0.01 0.02 0.03 0.03 0.02 0.01
0.03 0.02 0.02 0.02 0.02 0.02 0.02 0.03 0.03 0.03 0.02 0.02 0.02 0.02 0.02 0.03 0.03 0.03 0.03 0.03 0.03 0.03 0.03 0.03 0.02 0.03 0.02 0.03 0.03 0.02 0.03 0.02 0.01 0.01 0.01 0.01 0.01 0.01 0.01 0.01 0.01 0.01 0.01
0.03 0.05 0.05 0.05 0.04 0.04 0.03 0.04 0.03 0.02 0.02 0.02 0.01 0.02 0.01 0.01 0.02 0.02 0.01 0.01 0.01 0.01 0.02 0.01 0.02 0.02 0.02 0.03 0.03 0.02 0.02 0.02 0.01 0.01 0.01 0.01 0.01 0.02 0.01 0.01 0.01 0.01 0.01
0.02 0.04 0.07 0.07 0.05 0.04 0.03 0.03 0.03 0.02 0.02 0.02 0.02 0.01 0.01 0.01 0.01 0.01 0.01 0.01 0.01 0.01 0.01 0.01 0.02 0.02 0.02 0.03 0.03 0.02 0.01 0.02 0.02 0.01 0.01 0.01 0.01 0.02 0.02 0.02 0.02 0.02 0.02
0.03 0.07 0.10 0.11 0.09 0.05 0.03 0.01 0.01 0.02 0.02 0.01 0.01 0.00 0.00 0.01 0.01 0.01 0.01 0.01 0.01 0.01 0.01 0.02 0.02 0.02 0.03 0.02 0.02 0.02 0.01 0.02 0.02 0.02 0.02 0.02 0.01 0.02 0.02 0.02 0.02 0.02 0.01
0.05 0.08 0.09 0.09 0.05 0.03 0.01 0.01 0.01 0.01 0.01 0.00 0.00 0.00 0.00 0.00 0.01 0.01 0.01 0.01 0.01 0.01 0.03 0.03 0.02 0.01 0.02 0.03 0.03 0.02 0.01 0.01 0.02 0.02 0.02 0.02 0.02 0.01 0.01 0.01 0.01 0.01 0.01
0.05 0.05 0.05 0.03 0.01 0.00 0.00 0.00 0.00 0.00 0.00 0.00 0.00 0.00 0.00 0.00 0.00 0.00 0.01 0.01 0.01 0.01 0.01 0.01 0.01 0.01 0.01 0.02 0.02 0.02 0.02 0.02 0.03 0.02 0.02 0.02 0.01 0.01 0.01 0.00 0.00 0.01 0.01
0.02 0.02 0.02 0.01 0.00 0.00 0.00 0.00 0.00 0.00 0.00 0.00 0.00 0.00 0.00 0.00 0.00 0.00 0.00 0.01 0.01 0.02 0.02 0.03 0.03 0.03 0.03 0.03 0.03 0.03 0.03 0.03 0.03 0.02 0.01 0.01 0.01 0.01 0.01 0.01 0.01 0.01 0.01
MSLP
1016.99 1017.06 1017.09 1017.09 1017.08 1017.08 1017.12 1017.17 1017.24 1017.29 1017.31 1017.28 1017.23 1017.17 1017.15 1017.20 1017.36 1017.65 1018.04 1018.50 1018.99 1019.45 1019.83 1020.11 1020.29 1020.38 1020.43 1020.47 1020.52 1020.61 1020.74 1020.89 1021.04 1021.17 1021.27 1021.35 1021.40 1021.44 1021.50 1021.58 1021.67 1021.79 1021.90
1016.85 1016.93 1016.97 1016.99 1017.01 1017.04 1017.10 1017.18 1017.26 1017.32 1017.35 1017.34 1017.28 1017.22 1017.18 1017.20 1017.31 1017.54 1017.87 1018.28 1018.73 1019.16 1019.54 1019.84 1020.06 1020.21 1020.31 1020.40 1020.50 1020.61 1020.75 1020.90 1021.04 1021.16 1021.25 1021.31 1021.34 1021.36 1021.39 1021.44 1021.52 1021.62 1021.73
1016.67 1016.75 1016.80 1016.86 1016.91 1016.99 1017.09 1017.20 1017.32 1017.41 1017.45 1017.44 1017.39 1017.31 1017.23 1017.21 1017.26 1017.41 1017.66 1017.99 1018.37 1018.76 1019.12 1019.43 1019.68 1019.88 1020.03 1020.17 1020.30 1020.45 1020.61 1020.76 1020.90 1021.02 1021.10 1021.14 1021.17 1021.18 1021.20 1021.24 1021.31 1021.41 1021.53
1016.42 1016.50 1016.57 1016.66 1016.76 1016.89 1017.04 1017.20 1017.35 1017.47 1017.54 1017.54 1017.49 1017.40 1017.30 1017.23 1017.22 1017.29 1017.45 1017.70 1018.00 1018.33 1018.65 1018.95 1019.21 1019.43 1019.61 1019.78 1019.95 1020.12 1020.28 1020.45 1020.59 1020.71 1020.80 1020.85 1020.88 1020.90 1020.93 1020.98 1021.06 1021.17 1021.31
1016.12 1016.19 1016.28 1016.39 1016.53 1016.71 1016.90 1017.10 1017.29 1017.45 1017.54 1017.58 1017.54 1017.46 1017.36 1017.26 1017.21 1017.22 1017.31 1017.47 1017.69 1017.95 1018.21 1018.47 1018.71 1018.93 1019.12 1019.30 1019.48 1019.65 1019.83 1019.99 1020.15 1020.27 1020.37 1020.45 1020.50 1020.55 1020.60 1020.67 1020.77 1020.90 1021.06
1015.80 1015.85 1015.94 1016.06 1016.22 1016.42 1016.64 1016.88 1017.10 1017.28 1017.42 1017.49 1017.50 1017.46 1017.38 1017.30 1017.24 1017.22 1017.26 1017.35 1017.50 1017.69 1017.89 1018.09 1018.29 1018.47 1018.65 1018.81 1018.98 1019.14 1019.31 1019.47 1019.63 1019.77 1019.89 1019.99 1020.08 1020.16 1020.25 1020.35 1020.47 1020.61 1020.78
1015.51 1015.52 1015.59 1015.70 1015.86 1016.06 1016.28 1016.52 1016.76 1016.98 1017.15 1017.28 1017.35 1017.38 1017.36 1017.33 1017.31 1017.30 1017.32 1017.38 1017.47 1017.59 1017.73 1017.87 1018.01 1018.14 1018.28 1018.41 1018.55 1018.69 1018.84 1019.00 1019.15 1019.30 1019.44 1019.57 1019.69 1019.80 1019.91 1020.03 1020.16 1020.30 1020.45
1015.29 1015.27 1015.29 1015.37 1015.50 1015.67 1015.87 1016.09 1016.32 1016.55 1016.76 1016.95 1017.09 1017.21 1017.29 1017.35 1017.39 1017.43 1017.47 1017.52 1017.59 1017.66 1017.74 1017.82 1017.91 1017.99 1018.08 1018.18 1018.28 1018.39 1018.52 1018.66 1018.80 1018.95 1019.10 1019.24 1019.38 1019.51 1019.63 1019.75 1019.86 1019.98 1020.08
1015.19 1015.12 1015.11 1015.14 1015.21 1015.32 1015.47 1015.65 1015.85 1016.07 1016.30 1016.53 1016.76 1016.96 1017.15 1017.31 1017.44 1017.55 1017.64 1017.72 1017.78 1017.84 1017.89 1017.93 1017.98 1018.03 1018.09 1018.15 1018.23 1018.32 1018.42 1018.54 1018.66 1018.80 1018.94 1019.08 1019.21 1019.34 1019.44 1019.53 1019.61 1019.66 1019.69
1015.23 1015.13 1015.07 1015.04 1015.05 1015.09 1015.16 1015.27 1015.42 1015.61 1015.84 1016.09 1016.37 1016.65 1016.93 1017.19 1017.42 1017.61 1017.76 1017.88 1017.97 1018.03 1018.09 1018.13 1018.18 1018.22 1018.27 1018.33 1018.40 1018.47 1018.56 1018.65 1018.76 1018.87 1018.99 1019.10 1019.21 1019.30 1019.37 1019.41 1019.41 1019.39 1019.33
1015.39 1015.27 1015.17 1015.09 1015.03 1015.00 1014.99 1015.02 1015.10 1015.23 1015.42 1015.67 1015.97 1016.29 1016.63 1016.96 1017.26 1017.52 1017.74 1017.91 1018.05 1018.16 1018.24 1018.33 1018.41 1018.49 1018.57 1018.66 1018.74 1018.82 1018.90 1018.98 1019.06 1019.14 1019.22 1019.30 1019.36 1019.40 1019.42 1019.39 1019.31 1019.20 1019.04
1015.63 1015.49 1015.37 1015.26 1015.16 1015.06 1014.98 1014.92 1014.92 1014.98 1015.11 1015.31 1015.58 1015.91 1016.26 1016.62 1016.96 1017.27 1017.54 1017.76 1017.96 1018.13 1018.29 1018.45 1018.60 1018.76 1018.91 1019.06 1019.18 1019.29 1019.38 1019.44 1019.50 1019.55 1019.59 1019.61 1019.63 1019.62 1019.57 1019.48 1019.33 1019.12 1018.88
1015.88 1015.76 1015.64 1015.52 1015.38 1015.24 1015.10 1014.98 1014.89 1014.86 1014.91 1015.04 1015.25 1015.52 1015.84 1016.18 1016.52 1016.85 1017.15 1017.42 1017.68 1017.94 1018.19 1018.45 1018.71 1018.98 1019.23 1019.46 1019.65 1019.80 1019.91 1019.97 1020.01 1020.02 1020.02 1020.01 1019.97 1019.92 1019.82 1019.67 1019.47 1019.20 1018.88
1016.09 1016.00 1015.91 1015.80 1015.66 1015.51 1015.33 1015.15 1015.00 1014.89 1014.85 1014.88 1015.00 1015.19 1015.43 1015.72 1016.01 1016.32 1016.63 1016.94 1017.26 1017.60 1017.96 1018.33 1018.73 1019.12 1019.48 1019.81 1020.08 1020.28 1020.41 1020.48 1020.50 1020.49 1020.46 1020.41 1020.35 1020.26 1020.14 1019.97 1019.73 1019.43 1019.08
1016.23 1016.18 1016.13 1016.06 1015.95 1015.81 1015.63 1015.43 1015.22 1015.05 1014.92 1014.86 1014.88 1014.96 1015.10 1015.29 1015.52 1015.78 1016.08 1016.40 1016.77 1017.19 1017.65 1018.15 1018.66 1019.18 1019.66 1020.09 1020.43 1020.68 1020.84 1020.92 1020.94 1020.91 1020.86 1020.80 1020.72 1020.63 1020.51 1020.34 1020.11 1019.81 1019.46
1016.29 1016.29 1016.29 1016.27 1016.21 1016.11 1015.95 1015.76 1015.54 1015.33 1015.14 1014.99 1014.90 1014.88 1014.91 1015.00 1015.14 1015.34 1015.60 1015.93 1016.33 1016.80 1017.34 1017.94 1018.57 1019.20 1019.78 1020.28 1020.69 1020.99 1021.18 1021.27 1021.28 1021.25 1021.20 1021.14 1021.08 1021.00 1020.91 1020.77 1020.57 1020.31 1019.99
1016.30 1016.35 1016.40 1016.44 1016.44 1016.40 1016.29 1016.13 1015.92 1015.70 1015.48 1015.28 1015.11 1014.99 1014.92 1014.91 1014.97 1015.10 1015.31 1015.61 1016.01 1016.52 1017.12 1017.79 1018.49 1019.19 1019.85 1020.42 1020.87 1021.20 1021.41 1021.52 1021.54 1021.52 1021.48 1021.44 1021.41 1021.38 1021.33 1021.24 1021.10 1020.89 1020.62
1016.30 1016.39 1016.49 1016.58 1016.65 1016.66 1016.61 1016.50 1016.34 1016.14 1015.92 1015.69 1015.48 1015.30 1015.16 1015.06 1015.03 1015.09 1015.24 1015.50 1015.89 1016.39 1017.01 1017.71 1018.45 1019.19 1019.89 1020.49 1020.98 1021.33 1021.56 1021.68 1021.72 1021.72 1021.71 1021.71 1021.72 1021.74 1021.75 1021.73 1021.66 1021.51 1021.30
1016.31 1016.43 1016.57 1016.71 1016.82 1016.90 1016.91 1016.86 1016.76 1016.60 1016.41 1016.20 1015.98 1015.76 1015.57 1015.42 1015.33 1015.31 1015.40 1015.61 1015.95 1016.42 1017.01 1017.70 1018.44 1019.19 1019.90 1020.51 1021.01 1021.38 1021.63 1021.77 1021.84 1021.88 1021.91 1021.96 1022.02 1022.10 1022.18 1022.22 1022.21 1022.14 1021.99
1016.34 1016.49 1016.66 1016.82 1016.97 1017.08 1017.15 1017.16 1017.12 1017.02 1016.88 1016.71 1016.52 1016.31 1016.11 1015.93 1015.79 1015.71 1015.74 1015.88 1016.15 1016.56 1017.10 1017.74 1018.45 1019.17 1019.86 1020.47 1020.97 1021.36 1021.63 1021.80 1021.91 1021.99 1022.08 1022.18 1022.30 1022.44 1022.57 1022.68 1022.74 1022.73 1022.65
1016.36 1016.54 1016.72 1016.90 1017.07 1017.20 1017.30 1017.36 1017.38 1017.35 1017.28 1017.17 1017.03 1016.86 1016.67 1016.49 1016.32 1016.20 1016.17 1016.23 1016.43 1016.76 1017.21 1017.78 1018.42 1019.09 1019.75 1020.34 1020.85 1021.25 1021.55 1021.77 1021.93 1022.06 1022.20 1022.35 1022.53 1022.73 1022.92 1023.09 1023.20 1023.25 1023.24
1016.34 1016.54 1016.74 1016.92 1017.08 1017.22 1017.34 1017.43 1017.49 1017.52 1017.52 1017.49 1017.42 1017.31 1017.17 1017.01 1016.84 1016.70 1016.61 1016.61 1016.72 1016.95 1017.31 1017.79 1018.35 1018.95 1019.56 1020.13 1020.64 1021.06 1021.39 1021.65 1021.87 1022.06 1022.25 1022.46 1022.69 1022.94 1023.18 1023.40 1023.56 1023.68 1023.73
1016.23 1016.46 1016.66 1016.83 1016.98 1017.11 1017.23 1017.33 1017.42 1017.51 1017.58 1017.63 1017.64 1017.61 1017.54 1017.42 1017.28 1017.13 1017.01 1016.95 1016.97 1017.11 1017.37 1017.75 1018.22 1018.75 1019.31 1019.85 1020.35 1020.79 1021.16 1021.47 1021.73 1021.97 1022.22 1022.47 1022.74 1023.03 1023.31 1023.57 1023.79 1023.96 1024.08
1015.97 1016.25 1016.47 1016.64 1016.77 1016.87 1016.97 1017.07 1017.19 1017.32 1017.45 1017.58 1017.68 1017.75 1017.76 1017.71 1017.61 1017.48 1017.34 1017.23 1017.19 1017.24 1017.40 1017.68 1018.06 1018.52 1019.02 1019.53 1020.02 1020.47 1020.86 1021.21 1021.51 1021.79 1022.07 1022.35 1022.65 1022.96 1023.27 1023.56 1023.83 1024.05 1024.24
1015.57 1015.90 1016.15 1016.32 1016.44 1016.53 1016.61 1016.71 1016.83 1016.99 1017.18 1017.39 1017.58 1017.75 1017.85 1017.88 1017.84 1017.75 1017.61 1017.48 1017.39 1017.37 1017.44 1017.62 1017.91 1018.29 1018.73 1019.20 1019.68 1020.12 1020.53 1020.89 1021.22 1021.52 1021.81 1022.10 1022.40 1022.71 1023.03 1023.35 1023.65 1023.93 1024.17
1015.03 1015.44 1015.73 1015.93 1016.05 1016.13 1016.20 1016.29 1016.42 1016.61 1016.85 1017.13 1017.41 1017.66 1017.86 1017.98 1018.02 1017.97 1017.86 1017.72 1017.59 1017.51 1017.51 1017.61 1017.82 1018.12 1018.50 1018.92 1019.36 1019.79 1020.20 1020.56 1020.88 1021.17 1021.45 1021.73 1022.01 1022.30 1022.61 1022.93 1023.25 1023.56 1023.85
Thickness
5760 5760 5758 5758 5760 5759 5759 5758 5759 5757 5757 5758 5758 5758 5758 5757 5756 5754 5750 5745 5741 5739 5738 5736 5734 5732 5731 5729 5727 5726 5724 5723 5722 5720 5719 5718 5716 5715 5714 5713 5711 5710 5709
5760 5760 5759 5758 5760 5759 5759 5759 5759 5758 5759 5759 5759 5758 5757 5757 5754 5752 5752 5746 5743 5741 5739 5737 5735 5733 5731 5729 5727 5726 5724 5723 5721 5720 5719 5718 5716 5715 5713 5712 5711 5710 5708
5759 5760 5761 5760 5761 5760 5758 5759 5759 5759 5759 5760 5759 5758 5757 5755 5755 5753 5751 5750 5747 5742 5740 5737 5735 5734 5732 5730 5728 5726 5725 5723 5722 5720 5719 5717 5716 5715 5713 5712 5711 5709 5708
5759 5759 5761 5762 5760 5761 5761 5760 5760 5760 5759 5759 5758 5758 5758 5755 5754 5753 5752 5750 5749 5747 5742 5738 5736 5734 5732 5730 5728 5727 5725 5723 5722 5720 5719 5718 5716 5715 5713 5712 5710 5709 5708
5760 5760 5761 5760 5760 5761 5761 5762 5762 5760 5757 5757 5759 5758 5758 5756 5755 5753 5751 5750 5748 5746 5745 5740 5737 5735 5732 5730 5728 5727 5725 5723 5722 5720 5719 5717 5716 5714 5713 5711 5710 5708 5707
5761 5761 5762 5760 5761 5762 5761 5760 5759 5758 5757 5756 5758 5757 5756 5756 5755 5753 5751 5749 5747 5745 5744 5742 5738 5735 5732 5730 5727 5726 5724 5722 5721 5719 5718 5717 5715 5713 5711 5710 5708 5707 5705
5762 5761 5763 5761 5761 5762 5760 5761 5760 5758 5756 5756 5754 5753 5754 5755 5753 5751 5749 5747 5745 5743 5741 5739 5737 5735 5732 5728 5726 5724 5722 5721 5719 5718 5716 5715 5713 5711 5710 5708 5707 5705 5704
5762 5763 5761 5762 5762 5760 5760 5759 5758 5757 5757 5757 5753 5750 5747 5748 5748 5749 5747 5744 5742 5740 5738 5736 5734 5731 5729 5727 5725 5722 5720 5718 5717 5715 5714 5712 5711 5709 5708 5706 5705 5703 5702
5762 5761 5761 5762 5761 5761 5760 5758 5758 5756 5755 5756 5756 5751 5744 5742 5742 5743 5742 5741 5739 5737 5735 5733 5730 5728 5726 5723 5721 5718 5717 5715 5714 5712 5711 5709 5708 5706 5705 5704 5702 5701 5699
5762 5761 5761 5761 5760 5761 5759 5760 5760 5757 5754 5753 5754 5752 5751 5748 5740 5736 5736 5737 5735 5732 5730 5729 5727 5723 5721 5718 5716 5714 5713 5711 5710 5709 5707 5706 5705 5703 5702 5700 5699 5698 5696
5762 5761 5761 5760 5759 5760 5758 5757 5756 5756 5755 5753 5751 5750 5748 5746 5743 5737 5731 5729 5728 5727 5725 5723 5721 5719 5716 5714 5712 5709 5708 5706 5705 5704 5702 5701 5699 5698 5697 5696 5695 5693 5691
5761 5760 5760 5759 5758 5758 5757 5756 5755 5754 5753 5751 5750 5749 5747 5743 5740 5737 5731 5726 5722 5719 5719 5717 5716 5714 5711 5709 5706 5704 5702 5700 5699 5698 5696 5695 5693 5692 5691 5690 5688 5687 5686
5760 5758 5759 5757 5757 5756 5755 5755 5753 5752 5751 5748 5748 5747 5747 5744 5742 5738 5732 5726 5720 5716 5713 5711 5710 5708 5706 5703 5700 5698 5696 5694 5693 5692 5690 5688 5687 5685 5684 5682 5681 5680 5678
5759 5757 5756 5755 5754 5753 5753 5752 5753 5750 5748 5747 5746 5744 5743 5742 5740 5736 5732 5725 5717 5712 5709 5705 5703 5702 5700 5697 5694 5692 5690 5688 5686 5685 5683 5681 5680 5678 5676 5674 5673 5671 5670
5759 5756 5754 5753 5751 5750 5749 5749 5748 5746 5745 5744 5743 5742 5740 5739 5738 5734 5731 5726 5720 5711 5704 5700 5698 5696 5694 5691 5688 5686 5683 5681 5679 5678 5676 5674 5672 5670 5668 5666 5664 5663 5661
5756 5754 5753 5751 5749 5747 5746 5745 5744 5743 5741 5740 5738 5736 5735 5735 5733 5731 5728 5725 5722 5715 5705 5698 5694 5691 5688 5686 5682 5679 5676 5674 5671 5669 5668 5666 5664 5662 5660 5658 5656 5654 5652
5753 5751 5749 5747 5745 5743 5742 5740 5740 5738 5737 5736 5735 5733 5731 5729 5728 5727 5724 5721 5718 5712 5702 5693 5688 5684 5682 5680 5676 5674 5672 5669 5664 5661 5660 5658 5656 5654 5651 5649 5647 5645 5643
5751 5748 5746 5744 5742 5740 5738 5736 5735 5734 5732 5731 5729 5728 5727 5726 5724 5722 5719 5716 5712 5707 5701 5690 5683 5680 5676 5674 5671 5669 5667 5664 5660 5655 5653 5651 5648 5646 5643 5641 5638 5636 5633
5748 5745 5742 5740 5738 5736 5734 5732 5731 5729 5728 5726 5724 5723 5722 5720 5718 5716 5713 5711 5707 5703 5697 5689 5681 5676 5672 5669 5666 5664 5661 5658 5656 5650 5646 5643 5640 5638 5635 5632 5629 5627 5624
5745 5742 5739 5737 5734 5732 5730 5728 5726 5724 5723 5721 5719 5718 5716 5714 5712 5710 5708 5704 5701 5696 5691 5686 5679 5673 5668 5664 5662 5660 5656 5653 5651 5647 5641 5638 5634 5630 5627 5624 5621 5618 5616
5744 5740 5736 5733 5730 5728 5726 5723 5721 5719 5717 5715 5714 5712 5710 5706 5704 5703 5703 5700 5696 5692 5687 5682 5676 5670 5665 5661 5659 5657 5653 5649 5644 5641 5638 5634 5630 5626 5621 5616 5613 5610 5607
5740 5736 5732 5729 5726 5724 5717 5715 5715 5714 5712 5710 5708 5706 5704 5701 5697 5694 5692 5690 5689 5687 5683 5679 5673 5667 5662 5659 5655 5653 5650 5646 5640 5635 5633 5628 5625 5621 5617 5612 5606 5602 5599
5736 5731 5727 5723 5719 5714 5710 5709 5708 5709 5706 5704 5702 5700 5700 5696 5693 5691 5686 5683 5681 5677 5675 5674 5670 5665 5660 5656 5652 5648 5643 5641 5636 5632 5627 5624 5620 5616 5611 5605 5600 5596 5592
5731 5727 5723 5719 5715 5709 5704 5703 5702 5703 5702 5698 5696 5694 5692 5689 5687 5684 5682 5679 5675 5672 5670 5668 5665 5661 5656 5651 5647 5644 5639 5634 5630 5626 5622 5619 5615 5612 5607 5601 5595 5590 5586
5727 5723 5719 5715 5711 5705 5700 5699 5697 5699 5696 5693 5691 5688 5686 5683 5676 5676 5676 5672 5669 5665 5660 5657 5655 5651 5647 5643 5640 5639 5635 5633 5628 5623 5618 5615 5612 5607 5604 5600 5593 5586 5582
5723 5720 5716 5712 5708 5703 5696 5694 5692 5696 5693 5690 5686 5682 5676 5674 5669 5668 5669 5667 5663 5659 5656 5652 5647 5643 5640 5637 5633 5632 5631 5628 5625 5620 5615 5610 5608 5604 5600 5596 5591 5584 5578